Location: Poprad
(49.0500°N, 20.3000°E)
Time: 18:50:09
(UTC+02:00)

PCSat - Pass Details

Date: 24 April 2024
Orbit: 783 x 792 km, 67.1° (Epoch: 18 May)

Event Time Altitude Azimuth Distance (km) Brightness Sun altitude
Rises 20:05:08 0° 227° (SW) 3,270 13.1 -3.9°
Reaches altitude 10° 20:07:35 10° 232° (SW) 2,346 12.4 -4.2°
Maximum altitude 20:12:52 56° 311° (NW) 936 10.5 -5.0°
Drops below altitude 10° 20:18:13 10° 30° (NNE) 2,365 12.0 -5.8°
Sets 20:20:42 0° 34° (NE) 3,299 12.7 -6.1°
